YAOGAN-30 U (46807 NORAD) Tracking and Keplerian Element Data

This shows tracking and keplerian element data for the satellite.

Feedback or suggestion? Click here.




ElementValue
Catalog46807
NameYAOGAN-30 U
Epoch Orbit528
Epoch Day336.09930692
Epoch Year2020
RAAN29.3972
Inclination34.9979
Eccentricity0.000113
Argument of Perigee283.4209
Mean Anonmoly76.6371
Mean Motion14.89817399
Decay Rate4.08E-06
L11 46807U 20076A 20336.09930692 .00000408 00000-0 44460-4 0 9996
L22 46807 34.9979 29.3972 0001130 283.4209 76.6371 14.89817399 5287

Live tracking and technical data element details for YAOGAN-30 U (NORAD 46807). YAOGAN-30 U can be tracked NOW for your location showing map with azimuth and elevation plus other details from your city location.

Track the satellite on the map from your city or location and see movement details for azimuth, elevation, latitude, longitude, range, height, and movement on the map or in text.







IsCatalogInMostPopularTable: catalog: 46807, numindb: 9
Update: records affected: 1



GetName: 46807 YAOGAN-30 U

Hit Count: updated at: Wed, 02 Dec 2020 06:45:54 GMT